Weather Roundup
Issued by NWS Chicago, IL

Home | Current Version | Previous Version | Graphics & Text | Print | Product List | Glossary On
Versions: 1 2 3 4 5 6 7 8 9 10 11 12 13 14 15 16 17 18 19 20 21 22 23 24 25 26 27 28 29 30 31 32 33 34 35 36 37 38 39 40 41 42 43 44 45 46 47 48 49 50
000
NZUS59 KLOT 261408
HRRLOT

CHICAGO AREA WEATHER ROUNDUP
NATIONAL WEATHER SERVICE CHICAGO/ROMEOVILLE IL
900 AM CDT THU MAY 26 2016

NOTE: "FAIR" INDICATES FEW OR NO CLOUDS BELOW 12,000 FEET WITH NO
SIGNIFICANT WEATHER AND/OR OBSTRUCTIONS TO VISIBILITY.

* THESE STATIONS ARE NOT UNDER NWS QUALITY CONTROL. THEY ALSO MAY NOT
  REPORT WEATHER SUCH AS PRECIPITATION OR FOG.

ILZ005-006-012>014-019>023-261500-
NORTHEAST ILLINOIS

CITY           SKY/WX    TMP DP  RH WIND       PRES   REMARKS
OHARE          CLOUDY    72  67  84 SW14G21   29.93R
MIDWAY         CLOUDY    73  66  78 SW12      29.93S
AURORA         CLOUDY    71  64  78 SW9G18    29.92F
LANSING*       CLOUDY    72  66  81 SW12      29.95F
JOLIET*        CLOUDY    73  64  74 SW7       29.94F
WAUKEGAN       PTSUNNY   71  67  87 SW10      29.92R
DUPAGE AIRPORT CLOUDY    72  65  78 SW9       29.92S
WHEELING       CLOUDY    73  67  81 SW10      29.94R
KANKAKEE*      CLOUDY   N/A N/A N/A W7        29.97S
MORRIS*        LGT RAIN  68  62  79 SW3       29.91F
LEWIS AIRPORT* CLOUDY    72  64  74 W13G18    29.94F
$$

WIZ051-052-058>065-066-070>072-261500-
SOUTHEAST WISCONSIN

CITY           SKY/WX    TMP DP  RH WIND       PRES   REMARKS
MILWAUKEE      LGT RAIN  71  66  84 W13       29.92R
KENOSHA*       RAIN      70  66  87 SW9G17    29.93R FOG
RACINE*        LGT RAIN  70  66  87 SW7       29.94R
BURLINGTON     CLOUDY    64  62  94 SW5       29.92S
WAUKESHA       RAIN      64  63  94 SW6       29.93R
WEST BEND      DRIZZLE   68  59  73 W10G20    29.90S
$$

INZ001>003-010>013-019-020-261500-
NORTHWEST INDIANA

CITY           SKY/WX    TMP DP  RH WIND       PRES   REMARKS
GARY*          PTSUNNY   73  73 100 S8        29.95R
MICHIGAN CITY* NOT AVBL
RENSSELAER*    NOT AVBL
VALPARAISO     PTSUNNY   73  66  78 SW10      29.96F
$$

LMZ740>746-261500-
SOUTHERN LAKE MICHIGAN

STATION/POSITION TIME  SKY/WX   TEMP WIND        PRES    VSBY
                                AIR  DIR/SP/G
                 (UTC)          (F)  (DEG/KT/KT) (MB)    (MI)
HARRISON CRIB    1300            70  200/ 13/ 14   N/A
BURNHAM HARBOR   1400            72  240/  6/ 10   N/A
CALUMET HARBOR   1300            71  200/ 10/ 12 1013.1S
BURNS HARBOR     1300            71  190/ 11/ 19 1014.2F
MICHIGAN CITY    1300            70  160/ 11/ 13   N/A
$$

ABBREVIATIONS USED IN REMARKS
   TC - TEMPERATURE IN CELSIUS
  WCI - WIND CHILL INDEX
   HX - HEAT INDEX
  VSB - VISIBILITY
$$




USA.gov is the U.S. government's official web portal to all federal, state and local government web resources and services.